[[{"header":{"parameterUnit":"m.s-1","parameterCategory":2,"la1":30.2991,"la2":30.254,"lo1":-89.0895,"lo2":-89.0444,"dy":0.0017,"dx":0.0017,"nx":28,"ny":28,"refTime":"2024-11-26T03:00:00:Z","depth":"0","parameterNumber":2,"parameterNumberName":"U-component_of_CURRENTS"},"data":[0,0,0,0,0,0,0,0,0,0,0,0,0,0,0,0,0,0,0,0,0,0,0,0,0,0,0,0,0,0,0,0,0,0,0,0,0,0,0,0,0,0,0,0,0,0,0,0,0,0,0,0,0,0,0,0,0,0,-0.1809,-0.1809,0,-0.1787,-0.1787,-0.1786,-0.1722,-0.1722,-0.1721,-0.172,-0.1627,-0.1625,-0.1624,0,0,0,0,0,0,0,0,0,0,0,0,0,-0.1741,-0.1743,-0.1809,-0.1809,-0.1809,-0.1787,-0.1786,-0.1786,-0.1723,-0.1722,-0.172,-0.172,-0.1628,-0.1626,-0.1624,0,0,0,0,0,0,0,0,0,0,0,0,0,-0.1745,-0.1743,-0.1809,-0.1779,-0.1777,-0.1788,-0.1786,-0.1785,-0.1723,-0.1721,-0.172,-0.1719,-0.1628,-0.1626,-0.1623,-0.1633,0,0,-0.1616,-0.1614,0,0,0,0,0,0,0,0,-0.1745,-0.1747,-0.1783,-0.1782,-0.1779,-0.1761,-0.1729,-0.1733,-0.1723,-0.1737,-0.172,-0.1718,-0.167,-0.1664,-0.1655,-0.1628,-0.1624,-0.1615,-0.1614,-0.1613,-0.1612,0,0,0,0,0,0,0,-0.1745,-0.1747,-0.1794,-0.1784,-0.1781,-0.175,-0.1749,-0.1729,-0.1705,-0.1736,-0.1733,-0.174,-0.1667,-0.1658,-0.1653,-0.1623,-0.1615,-0.1613,-0.1612,-0.1611,-0.1593,-0.1594,0,0,0,0,0,0,-0.1764,-0.1747,-0.1795,-0.1794,-0.1765,-0.1753,-0.1751,-0.1763,-0.1707,-0.1699,-0.1741,-0.1737,-0.1663,-0.1656,-0.1649,-0.1599,-0.1613,-0.161,-0.1609,-0.1592,-0.1593,-0.1594,0,0,0,0,0,0,-0.1763,-0.1769,-0.1796,-0.1774,-0.1776,-0.1756,-0.177,-0.1764,-0.1754,-0.1713,-0.1702,-0.1739,-0.1662,-0.1653,-0.164,-0.1597,-0.1609,-0.1607,-0.1591,-0.1592,-0.1594,-0.1537,0,0,0,0,0,0,-0.1761,-0.1768,-0.1771,-0.1776,-0.1778,-0.18,-0.1772,-0.1765,-0.1764,-0.1758,-0.1707,-0.1697,-0.166,-0.1644,-0.1637,-0.1594,-0.1605,-0.1589,-0.1591,-0.1593,-0.1537,-0.1536,-0.1535,0,0,0,0,0,-0.1759,-0.1772,-0.1771,-0.1777,-0.1788,-0.1802,-0.1799,-0.1776,-0.1765,-0.1762,-0.1737,-0.1699,-0.1651,-0.1643,-0.1635,-0.159,-0.1588,-0.1591,-0.1593,-0.1538,-0.1537,-0.1535,0,0,0,0,0,0,-0.1737,-0.1767,-0.1767,-0.1786,-0.1794,-0.1793,-0.1788,-0.1785,-0.1764,-0.1756,-0.1715,-0.1704,-0.1675,-0.1666,-0.1658,-0.16,-0.1613,-0.1614,-0.1574,-0.1572,-0.1571,-0.1563,-0.1603,0,0,0,0,0,-0.174,-0.1752,-0.1779,-0.1787,-0.18,-0.1798,-0.1799,-0.1792,-0.1784,-0.1772,-0.1738,-0.171,-0.1681,-0.1655,-0.1637,-0.1607,-0.1575,-0.1579,-0.1578,-0.1576,-0.1571,-0.1488,-0.1476,-0.1602,-0.1602,-0.1602,0,0,-0.1725,-0.1749,-0.1748,-0.1782,-0.1785,-0.1794,-0.1793,-0.1802,-0.179,-0.1767,-0.173,-0.171,-0.1681,-0.164,-0.1625,-0.1619,-0.153,-0.1579,-0.1577,-0.1572,-0.1488,-0.1475,-0.1464,-0.1604,-0.1603,-0.1603,0,0,-0.1714,-0.1735,-0.1746,-0.1761,-0.1786,-0.1789,-0.18,-0.1806,-0.1788,-0.1776,-0.1746,-0.1709,-0.1676,-0.1625,-0.1601,-0.1595,-0.1537,-0.1593,-0.1554,-0.1473,-0.146,-0.1448,-0.1399,-0.1383,-0.1576,-0.1576,-0.1576,0,-0.1698,-0.1712,-0.1747,-0.1767,-0.1764,-0.1792,-0.179,-0.179,-0.1782,-0.1748,-0.1762,-0.1673,-0.1661,-0.157,-0.1576,-0.1582,-0.1542,-0.1547,-0.1464,-0.1452,-0.1441,-0.1393,-0.1376,-0.1574,-0.1574,-0.1574,-0.1575,0,-0.1693,-0.1703,-0.1713,-0.1739,-0.1748,-0.175,-0.177,-0.176,-0.175,-0.1724,-0.1653,-0.163,-0.1565,-0.1558,-0.1568,-0.1475,-0.1476,-0.1475,-0.145,-0.1423,-0.1377,-0.136,-0.157,-0.1571,-0.1572,-0.1573,0,0,-0.1642,-0.1698,-0.1695,-0.169,-0.1726,-0.1726,-0.172,-0.1692,-0.1654,-0.1631,-0.1545,-0.1516,-0.1489,-0.1466,-0.1448,-0.1389,-0.13,-0.1404,-0.1401,-0.1327,-0.113,-0.1124,-0.1106,-0.1267,-0.1264,-0.1261,-0.113,0,-0.1613,-0.1637,-0.1667,-0.1648,-0.1649,-0.1667,-0.1654,-0.1634,-0.1605,-0.1537,-0.1482,-0.1417,-0.1456,-0.1415,-0.136,-0.1313,-0.1253,-0.1337,-0.1194,-0.1191,-0.1162,-0.1085,-0.1003,-0.0878,-0.1114,-0.1111,-0.1109,0,-0.1571,-0.1595,-0.1591,-0.1588,-0.1589,-0.1582,-0.1532,-0.1531,-0.1467,-0.1441,-0.1357,-0.132,-0.123,-0.1278,-0.1148,-0.1194,-0.117,-0.1139,-0.1133,-0.1132,-0.1152,-0.0946,-0.0839,-0.0826,-0.1083,-0.1085,-0.1087,0,-0.1484,-0.1514,-0.1501,-0.1504,-0.1531,-0.1506,-0.1511,-0.1477,-0.1445,-0.1368,-0.1302,-0.1206,-0.1132,-0.1075,-0.1048,-0.1079,-0.0909,-0.0935,-0.0899,-0.09,-0.0806,-0.0804,-0.0642,-0.0838,-0.0838,-0.0839,-0.0839,0,-0.1414,-0.1392,-0.1459,-0.1447,-0.1405,-0.1454,-0.1398,-0.1386,-0.1345,-0.1234,-0.1242,-0.1107,-0.1077,-0.0979,-0.098,-0.088,-0.0846,-0.0869,-0.0846,-0.0791,-0.0789,-0.076,-0.0801,-0.0834,-0.0835,-0.0836,-0.0837,0,-0.1292,-0.1353,-0.1325,-0.1358,-0.1361,-0.1329,-0.1335,-0.1281,-0.1285,-0.113,-0.1092,-0.1002,-0.0888,-0.0876,-0.0772,-0.0771,-0.0682,-0.0689,-0.0652,-0.0628,-0.0594,-0.0638,-0.052,-0.0506,-0.0598,-0.0596,-0.0595,0,-0.1231,-0.1211,-0.1235,-0.1213,-0.1218,-0.121,-0.1185,-0.1226,-0.1156,-0.1017,-0.0895,-0.0789,-0.0633,-0.0542,-0.0567,-0.055,-0.0604,-0.0473,-0.0526,-0.0552,-0.0582,-0.0654,-0.0657,-0.0382,-0.0379,-0.0377,-0.0375,0,-0.1073,-0.1085,-0.1067,-0.1037,-0.1009,-0.0981,-0.0942,-0.0891,-0.0868,-0.0739,-0.05,-0.0377,-0.0342,-0.0254,-0.0336,-0.0354,-0.0456,-0.0428,-0.0423,-0.0369,-0.0462,-0.0451,-0.055,-0.0356,-0.0358,-0.0359,-0.036,-0.0361,-0.0925,-0.0865,-0.0844,-0.0802,-0.0782,-0.0689,-0.0608,-0.0552,-0.0407,-0.0178,-0.0138,0.0055,0.007,-0.0025,-0.0117,-0.0222,-0.0318,-0.021,-0.025,-0.0315,-0.0323,-0.0411,-0.0224,-0.0225,-0.0226,-0.0227,-0.0228,0,-0.0708,-0.0654,-0.0599,-0.0535,-0.0459,-0.051,-0.0385,-0.0276,-0.0044,0.0088,0.0287,0.0442,0.0437,0.0279,0.0141,0.0033,-0.0072,-0.0048,-0.0098,-0.0102,-0.0109,-0.0122,0.0059,0.0059,0.0059,0.0059,0.0059,0.0059,-0.0579,-0.0449,-0.0428,-0.0237,-0.0203,-0.0036,0.0061,0.0209,0.0312,0.0561,0.0646,0.0658,0.0612,0.0504,0.0286,0.0172,0.0076,0.0015,-0.0053,-0.0032,-0.005,-0.0067,-0.0085,0.0101,0.0101,-0.0001,-0.0002,-0.0003]},{"header":{"parameterUnit":"m.s-1","parameterCategory":2,"la1":30.2991,"la2":30.254,"lo1":-89.0895,"lo2":-89.0444,"dy":0.0017,"dx":0.0017,"nx":28,"ny":28,"refTime":"2024-11-26T03:00:00:Z","depth":"0","parameterNumber":3,"parameterNumberName":"V-component_of_CURRENTS"},"data":[0,0,0,0,0,0,0,0,0,0,0,0,0,0,0,0,0,0,0,0,0,0,0,0,0,0,0,0,0,0,0,0,0,0,0,0,0,0,0,0,0,0,0,0,0,0,0,0,0,0,0,0,0,0,0,0,0,0,0.0735,0.0736,0,0.0837,0.0839,0.084,0.0892,0.0892,0.0891,0.0891,0.0962,0.0964,0.0966,0,0,0,0,0,0,0,0,0,0,0,0,0,0.0702,0.0701,0.0735,0.0736,0.0737,0.0837,0.0839,0.0841,0.0892,0.0892,0.0891,0.0891,0.0961,0.0964,0.0966,0,0,0,0,0,0,0,0,0,0,0,0,0,0.0753,0.0701,0.0735,0.0773,0.0777,0.0837,0.0839,0.0841,0.0892,0.0892,0.0891,0.0891,0.0961,0.0964,0.0967,0.0993,0,0,0.0976,0.0978,0,0,0,0,0,0,0,0,0.075,0.0755,0.0766,0.077,0.0775,0.0849,0.0853,0.0889,0.0892,0.0851,0.0891,0.0891,0.092,0.0926,0.0951,0.0996,0.0999,0.0977,0.0979,0.098,0.0981,0,0,0,0,0,0,0,0.0746,0.0751,0.0778,0.0767,0.0773,0.0825,0.0831,0.0861,0.0888,0.0855,0.0858,0.0865,0.0923,0.0948,0.0953,0.1,0.0977,0.0979,0.0981,0.0983,0.1063,0.1064,0,0,0,0,0,0,0.0723,0.0747,0.0775,0.0781,0.0759,0.0825,0.0832,0.0828,0.0888,0.0897,0.0865,0.0867,0.0942,0.0949,0.0955,0.0949,0.098,0.0983,0.0985,0.1063,0.1064,0.1064,0,0,0,0,0,0,0.0721,0.0724,0.0771,0.0765,0.0775,0.0825,0.0821,0.083,0.0848,0.0896,0.0904,0.0872,0.0942,0.0951,0.0969,0.0953,0.0984,0.0987,0.1063,0.1063,0.1064,0.0961,0,0,0,0,0,0,0.072,0.0722,0.0717,0.0763,0.0774,0.0785,0.0821,0.0832,0.0852,0.0855,0.0904,0.0911,0.0943,0.0964,0.0972,0.0958,0.099,0.1063,0.1063,0.1064,0.0964,0.0958,0.0953,0,0,0,0,0,0.0718,0.0705,0.0715,0.0719,0.0762,0.0783,0.0793,0.0832,0.0852,0.0849,0.0886,0.0909,0.0973,0.0966,0.0976,0.0962,0.1062,0.1063,0.1064,0.0967,0.0959,0.0953,0,0,0,0,0,0,0.0684,0.071,0.0723,0.0717,0.0738,0.079,0.0796,0.0824,0.0856,0.0861,0.0907,0.0916,0.0933,0.0966,0.0957,0.0992,0.1024,0.1027,0.0948,0.0941,0.0935,0.0928,0.0992,0,0,0,0,0,0.0674,0.0669,0.0701,0.0694,0.0702,0.0749,0.0765,0.079,0.0823,0.0838,0.087,0.0911,0.0947,0.0955,0.0995,0.1003,0.105,0.1006,0.1,0.0995,0.0999,0.1043,0.1041,0.1066,0.1066,0.1066,0,0,0.0654,0.0671,0.0665,0.0686,0.071,0.0716,0.0758,0.0773,0.078,0.0839,0.0852,0.0894,0.0949,0.0964,0.0973,0.0982,0.1015,0.0996,0.099,0.0997,0.1044,0.1041,0.1039,0.1066,0.1066,0.1066,0,0,0.0613,0.0628,0.0611,0.063,0.0658,0.0689,0.0686,0.0729,0.0746,0.0763,0.0815,0.0842,0.0888,0.0922,0.0947,0.0936,0.099,0.0951,0.0902,0.0944,0.0942,0.0941,0.0998,0.1003,0.0937,0.0937,0.0937,0,0.0588,0.0576,0.0609,0.0606,0.0622,0.0668,0.0663,0.0686,0.0729,0.074,0.075,0.0834,0.087,0.0901,0.0896,0.092,0.0961,0.0914,0.0934,0.0933,0.0934,0.0994,0.1,0.0932,0.0933,0.0933,0.0934,0,0.0543,0.0537,0.0529,0.054,0.0562,0.0562,0.0602,0.0617,0.0644,0.067,0.0701,0.0754,0.0802,0.0816,0.0849,0.0872,0.0908,0.0924,0.0941,0.0924,0.099,0.0998,0.0925,0.0927,0.0929,0.093,0,0,0.047,0.049,0.0483,0.0491,0.0532,0.0546,0.0556,0.0579,0.0589,0.0617,0.0632,0.0681,0.0713,0.0746,0.0793,0.0821,0.0854,0.0863,0.0867,0.0904,0.0961,0.0865,0.0866,0.0867,0.0868,0.0869,0.1005,0,0.042,0.0391,0.043,0.0421,0.0416,0.048,0.0483,0.0517,0.0551,0.0574,0.0622,0.0662,0.0685,0.0716,0.0738,0.0848,0.0872,0.0817,0.0988,0.0993,0.0895,0.087,0.0884,0.0995,0.1014,0.1015,0.1016,0,0.0367,0.0356,0.0326,0.0367,0.0372,0.0379,0.0423,0.0438,0.0483,0.0513,0.0551,0.0608,0.0672,0.0688,0.0823,0.0788,0.0858,0.0926,0.0933,0.0885,0.0911,0.1018,0.101,0.1033,0.103,0.1029,0.1028,0,0.0301,0.03,0.0273,0.0283,0.032,0.0329,0.0356,0.0403,0.044,0.0485,0.0549,0.059,0.0688,0.0739,0.0866,0.0857,0.1012,0.1024,0.1002,0.0998,0.1065,0.1063,0.1085,0.1095,0.1095,0.1095,0.1094,0,0.0246,0.0232,0.0233,0.0223,0.021,0.0264,0.0267,0.0314,0.0384,0.0479,0.0515,0.0647,0.0713,0.0817,0.0867,0.0955,0.1015,0.099,0.1015,0.1028,0.1021,0.1088,0.1095,0.11,0.1099,0.1098,0.1097,0,0.0193,0.0182,0.0166,0.0175,0.0179,0.0173,0.024,0.0257,0.0347,0.049,0.053,0.0718,0.0851,0.0876,0.1012,0.1004,0.107,0.1072,0.1075,0.1092,0.1029,0.103,0.107,0.1114,0.1064,0.1062,0.106,0,0.0164,0.0139,0.0127,0.0116,0.0121,0.0117,0.0124,0.0208,0.0286,0.0589,0.069,0.0859,0.1033,0.1117,0.1039,0.1022,0.1071,0.1054,0.1005,0.1007,0.1031,0.1025,0.1061,0.1089,0.1088,0.1087,0.1087,0,0.0134,0.0124,0.0114,0.0073,0.0069,0.0083,0.0144,0.0212,0.04,0.0615,0.0992,0.1171,0.1213,0.1237,0.1087,0.106,0.1043,0.1029,0.1063,0.1052,0.1026,0.1087,0.103,0.1078,0.1079,0.108,0.108,0.1081,0.0125,0.0115,0.0095,0.0065,0.0064,0.0116,0.0181,0.0334,0.0556,0.097,0.1191,0.1501,0.1473,0.1257,0.1141,0.0937,0.0967,0.0989,0.1,0.1,0.0986,0.0872,0.0901,0.09,0.09,0.09,0.09,0,0.0134,0.013,0.0101,0.0097,0.0115,0.0114,0.0256,0.0395,0.0739,0.1059,0.146,0.1689,0.1579,0.1375,0.1091,0.0991,0.097,0.0984,0.104,0.1089,0.1041,0.0981,0.0988,0.0988,0.0988,0.0988,0.0988,0.0988,0.0146,0.0129,0.0116,0.015,0.017,0.0282,0.0393,0.0657,0.0886,0.1367,0.1614,0.1795,0.1753,0.1375,0.1106,0.1047,0.1101,0.1036,0.108,0.1091,0.1095,0.1098,0.1043,0.1064,0.1064,0.1171,0.1171,0.1172]}],[{"header":{"parameterUnit":"m.s-1","parameterCategory":2,"la1":30.2991,"la2":30.254,"lo1":-89.0895,"lo2":-89.0444,"dy":0.0017,"dx":0.0017,"nx":28,"ny":28,"refTime":"2024-11-26T03:00:00:Z","depth":"2","parameterNumber":2,"parameterNumberName":"U-component_of_CURRENTS"},"data":[0,0,0,0,0,0,0,0,0,0,0,0,0,0,0,0,0,0,0,0,0,0,0,0,0,0,0,0,0,0,0,0,0,0,0,0,0,0,0,0,0,0,0,0,0,0,0,0,0,0,0,0,0,0,0,0,0,0,-0.2399,-0.24,0,-0.2453,-0.2453,-0.2452,-0.2487,-0.2488,-0.2489,-0.249,-0.2422,-0.2419,-0.2416,0,0,0,0,0,0,0,0,0,0,0,0,0,-0.2193,-0.2197,-0.2399,-0.24,-0.2402,-0.2453,-0.2453,-0.2452,-0.2486,-0.2488,-0.2489,-0.249,-0.2423,-0.2419,-0.2416,0,0,0,0,0,0,0,0,0,0,0,0,0,-0.226,-0.2198,-0.2398,-0.2431,-0.2435,-0.2453,-0.2453,-0.2452,-0.2486,-0.2488,-0.2489,-0.2491,-0.2424,-0.242,-0.2416,-0.236,0,0,-0.2403,-0.2401,0,0,0,0,0,0,0,0,-0.2257,-0.2267,-0.2425,-0.2429,-0.2434,-0.2472,-0.2356,-0.2418,-0.2486,-0.2457,-0.249,-0.2491,-0.2432,-0.2427,-0.2423,-0.2357,-0.2354,-0.2403,-0.24,-0.2398,-0.2397,0,0,0,0,0,0,0,-0.2252,-0.2264,-0.2411,-0.2427,-0.2432,-0.2399,-0.241,-0.2367,-0.2426,-0.246,-0.2465,-0.2484,-0.2432,-0.2427,-0.2422,-0.2353,-0.2403,-0.2399,-0.2397,-0.2395,-0.2255,-0.2254,0,0,0,0,0,0,-0.2269,-0.2261,-0.241,-0.2414,-0.2357,-0.2403,-0.2415,-0.2451,-0.243,-0.2432,-0.2483,-0.2486,-0.2433,-0.2426,-0.2419,-0.2361,-0.2398,-0.2395,-0.2392,-0.2256,-0.2255,-0.2254,0,0,0,0,0,0,-0.2265,-0.2283,-0.2408,-0.2344,-0.2359,-0.2406,-0.2446,-0.2452,-0.2479,-0.245,-0.2448,-0.251,-0.2434,-0.2425,-0.2388,-0.2358,-0.2393,-0.2389,-0.2258,-0.2256,-0.2254,-0.2238,0,0,0,0,0,0,-0.2259,-0.2281,-0.2334,-0.2346,-0.2363,-0.2433,-0.2445,-0.2452,-0.2491,-0.2496,-0.2471,-0.2465,-0.2435,-0.2394,-0.2384,-0.2353,-0.2386,-0.2259,-0.2257,-0.2255,-0.224,-0.2235,-0.2232,0,0,0,0,0,-0.2251,-0.2321,-0.2336,-0.2356,-0.2428,-0.2434,-0.2439,-0.247,-0.2492,-0.25,-0.2475,-0.2468,-0.2372,-0.239,-0.2378,-0.2345,-0.2261,-0.2258,-0.2255,-0.2242,-0.2236,-0.2232,0,0,0,0,0,0,-0.2281,-0.2332,-0.2349,-0.2439,-0.2441,-0.2444,-0.2474,-0.2485,-0.2475,-0.2477,-0.245,-0.2441,-0.2398,-0.2375,-0.2395,-0.2299,-0.2315,-0.2309,-0.2309,-0.2303,-0.2299,-0.229,-0.2382,0,0,0,0,0,-0.2308,-0.2358,-0.2384,-0.2449,-0.2456,-0.2464,-0.2482,-0.2486,-0.2476,-0.2477,-0.245,-0.2414,-0.237,-0.2345,-0.2305,-0.2249,-0.2207,-0.2221,-0.2217,-0.2214,-0.2198,-0.2083,-0.2066,-0.2244,-0.2244,-0.2244,0,0,-0.234,-0.2372,-0.2407,-0.2455,-0.246,-0.2447,-0.2476,-0.2494,-0.2471,-0.2464,-0.2427,-0.2405,-0.2356,-0.2295,-0.2272,-0.2274,-0.215,-0.221,-0.2208,-0.2193,-0.2078,-0.206,-0.2045,-0.2243,-0.2243,-0.2243,0,0,-0.2362,-0.2447,-0.246,-0.2461,-0.2472,-0.2468,-0.2478,-0.2472,-0.2467,-0.2424,-0.2411,-0.237,-0.2309,-0.2256,-0.2225,-0.2174,-0.214,-0.2171,-0.2129,-0.2018,-0.2002,-0.1987,-0.1949,-0.1931,-0.2159,-0.2159,-0.2159,0,-0.2399,-0.2417,-0.2463,-0.2448,-0.2451,-0.2475,-0.2451,-0.2442,-0.2418,-0.2388,-0.241,-0.2301,-0.2279,-0.2181,-0.2171,-0.2161,-0.2118,-0.2154,-0.2011,-0.1995,-0.198,-0.1944,-0.1924,-0.2157,-0.2158,-0.2158,-0.2158,0,-0.2374,-0.2406,-0.2411,-0.2397,-0.2405,-0.2397,-0.2385,-0.2371,-0.2369,-0.2341,-0.2267,-0.2227,-0.2156,-0.2148,-0.2145,-0.203,-0.2044,-0.2028,-0.2023,-0.1961,-0.1928,-0.1908,-0.2156,-0.2156,-0.2157,-0.2157,0,0,-0.2405,-0.2396,-0.2398,-0.2377,-0.2376,-0.237,-0.2334,-0.229,-0.225,-0.222,-0.2143,-0.2086,-0.2075,-0.2039,-0.2025,-0.1942,-0.183,-0.1944,-0.1939,-0.1907,-0.1625,-0.1576,-0.155,-0.1779,-0.1774,-0.1771,-0.1659,0,-0.236,-0.2323,-0.233,-0.2292,-0.2272,-0.2279,-0.2241,-0.2208,-0.2176,-0.2108,-0.2061,-0.1991,-0.2029,-0.1992,-0.1914,-0.1856,-0.1768,-0.1865,-0.1689,-0.1685,-0.1646,-0.152,-0.1449,-0.1335,-0.1639,-0.1635,-0.1633,0,-0.2312,-0.2293,-0.2247,-0.2225,-0.2217,-0.2194,-0.2141,-0.2106,-0.2028,-0.1997,-0.1925,-0.1896,-0.1804,-0.1829,-0.1678,-0.1738,-0.1672,-0.1627,-0.162,-0.1557,-0.1593,-0.1436,-0.1286,-0.1599,-0.1601,-0.1604,-0.1606,0,-0.2272,-0.2243,-0.2204,-0.2196,-0.2165,-0.2138,-0.212,-0.2062,-0.2017,-0.1916,-0.1866,-0.1768,-0.1703,-0.1607,-0.1565,-0.1593,-0.1395,-0.1414,-0.1306,-0.1306,-0.1199,-0.1196,-0.1247,-0.1247,-0.1248,-0.1248,-0.1248,0,-0.2218,-0.2194,-0.2183,-0.2155,-0.2102,-0.2103,-0.2029,-0.1995,-0.1925,-0.1859,-0.1805,-0.1733,-0.1633,-0.1538,-0.1502,-0.1353,-0.1337,-0.1261,-0.1236,-0.1199,-0.1196,-0.1389,-0.1407,-0.1244,-0.1245,-0.1246,-0.1246,0,-0.2174,-0.2168,-0.2124,-0.209,-0.2077,-0.204,-0.1992,-0.1935,-0.1886,-0.1792,-0.1758,-0.1664,-0.154,-0.1461,-0.1301,-0.125,-0.1133,-0.1079,-0.1086,-0.106,-0.1143,-0.1161,-0.0917,-0.0914,-0.0911,-0.0908,-0.0906,0,-0.2148,-0.2113,-0.2076,-0.2045,-0.2025,-0.1977,-0.1938,-0.1905,-0.1864,-0.1767,-0.1723,-0.1575,-0.1478,-0.1251,-0.1102,-0.096,-0.1035,-0.0815,-0.0823,-0.1089,-0.109,-0.1114,-0.1136,-0.0707,-0.0704,-0.0701,-0.0699,0,-0.2076,-0.2067,-0.2028,-0.1966,-0.1926,-0.1879,-0.184,-0.181,-0.1775,-0.1687,-0.1603,-0.1516,-0.1302,-0.1099,-0.0893,-0.0804,-0.0835,-0.0748,-0.0945,-0.0809,-0.0881,-0.0888,-0.0917,-0.0673,-0.0675,-0.0677,-0.0679,-0.068,-0.2025,-0.1985,-0.193,-0.1863,-0.1828,-0.1776,-0.1703,-0.1669,-0.1577,-0.1401,-0.1441,-0.1229,-0.1175,-0.0774,-0.0682,-0.0548,-0.0609,-0.0569,-0.0581,-0.0595,-0.0596,-0.0659,-0.0415,-0.0416,-0.0416,-0.0417,-0.0418,0,-0.1916,-0.1879,-0.1823,-0.1737,-0.1665,-0.1682,-0.1619,-0.1483,-0.1339,-0.1212,-0.1065,-0.0851,-0.0682,-0.0628,-0.0399,-0.0329,-0.033,-0.0292,-0.035,-0.0375,-0.0397,-0.0392,-0.0154,-0.0153,-0.0152,-0.0152,0,0,-0.1853,-0.1754,-0.1716,-0.1574,-0.1535,-0.1404,-0.135,-0.1139,-0.1001,-0.0758,-0.0623,-0.0526,-0.0603,-0.0389,-0.0332,-0.0234,-0.0288,-0.0171,-0.0383,-0.0477,-0.0499,-0.0551,-0.0569,0,0,0,0,0]},{"header":{"parameterUnit":"m.s-1","parameterCategory":2,"la1":30.2991,"la2":30.254,"lo1":-89.0895,"lo2":-89.0444,"dy":0.0017,"dx":0.0017,"nx":28,"ny":28,"refTime":"2024-11-26T03:00:00:Z","depth":"2","parameterNumber":3,"parameterNumberName":"V-component_of_CURRENTS"},"data":[0,0,0,0,0,0,0,0,0,0,0,0,0,0,0,0,0,0,0,0,0,0,0,0,0,0,0,0,0,0,0,0,0,0,0,0,0,0,0,0,0,0,0,0,0,0,0,0,0,0,0,0,0,0,0,0,0,0,-0.0399,-0.0395,0,-0.0094,-0.009,-0.0087,0.0073,0.0073,0.0074,0.0074,0.0239,0.0243,0.0247,0,0,0,0,0,0,0,0,0,0,0,0,0,-0.0634,-0.0632,-0.0399,-0.0395,-0.0391,-0.0094,-0.009,-0.0086,0.0073,0.0073,0.0074,0.0074,0.0238,0.0243,0.0248,0,0,0,0,0,0,0,0,0,0,0,0,0,-0.0452,-0.0631,-0.04,-0.0275,-0.0261,-0.0095,-0.009,-0.0085,0.0073,0.0073,0.0074,0.0074,0.0237,0.0242,0.0249,0.0276,0,0,0.0267,0.027,0,0,0,0,0,0,0,0,-0.0463,-0.0444,-0.0297,-0.0283,-0.0267,-0.0047,-0.0112,0.0029,0.0073,-0.0055,0.0074,0.0074,0.0131,0.0146,0.0203,0.0284,0.0291,0.0268,0.0271,0.0274,0.0276,0,0,0,0,0,0,0,-0.0476,-0.0455,-0.0279,-0.0293,-0.0275,-0.0162,-0.0138,-0.0083,0.0028,-0.0044,-0.0031,0.0004,0.0138,0.0196,0.0207,0.0293,0.0268,0.0273,0.0277,0.0279,0.0459,0.046,0,0,0,0,0,0,-0.0523,-0.0468,-0.0289,-0.027,-0.0364,-0.0159,-0.0132,-0.0119,0.0031,0.0056,0.0004,0.0011,0.0186,0.02,0.0213,0.0293,0.0274,0.028,0.0283,0.0458,0.046,0.0461,0,0,0,0,0,0,-0.053,-0.0511,-0.0301,-0.0359,-0.0325,-0.0158,-0.0143,-0.0113,-0.0027,0.0069,0.0091,0.0062,0.0187,0.0205,0.0274,0.0298,0.0283,0.0288,0.0457,0.0459,0.046,0.0425,0,0,0,0,0,0,-0.0538,-0.0516,-0.0488,-0.0364,-0.0323,-0.019,-0.0142,-0.0108,-0.0007,0.0006,0.0125,0.0141,0.0188,0.0264,0.028,0.0306,0.0293,0.0455,0.0458,0.046,0.0425,0.0425,0.0426,0,0,0,0,0,-0.0548,-0.0503,-0.0489,-0.0464,-0.0304,-0.0188,-0.0156,-0.0035,-0.0005,0.0042,0.0108,0.0138,0.0289,0.027,0.0288,0.0317,0.0454,0.0457,0.0459,0.0425,0.0425,0.0426,0,0,0,0,0,0,-0.058,-0.0479,-0.0461,-0.0388,-0.0299,-0.0161,-0.0083,-0.0027,0.0069,0.0079,0.0151,0.0172,0.0244,0.0283,0.026,0.0375,0.0378,0.0384,0.0345,0.0346,0.0347,0.0328,0.0298,0,0,0,0,0,-0.0585,-0.0533,-0.0434,-0.0377,-0.0333,-0.0216,-0.0142,-0.0079,0.0011,0.0059,0.0123,0.0195,0.0268,0.0306,0.037,0.0428,0.0446,0.046,0.046,0.046,0.0458,0.0489,0.0491,0.0469,0.0469,0.0469,0,0,-0.0586,-0.0519,-0.0491,-0.038,-0.0298,-0.0231,-0.0169,-0.0066,-0.0009,0.0054,0.0144,0.02,0.0284,0.0355,0.0391,0.039,0.0478,0.0463,0.0463,0.0461,0.0492,0.0493,0.0495,0.0471,0.047,0.047,0,0,-0.058,-0.0506,-0.0475,-0.0397,-0.0283,-0.0211,-0.0189,-0.007,-0.0005,0.0073,0.0133,0.0194,0.0303,0.0363,0.0411,0.0451,0.0479,0.0477,0.0467,0.0496,0.0498,0.0499,0.0525,0.0529,0.0477,0.0477,0.0477,0,-0.0586,-0.0533,-0.0443,-0.0388,-0.0311,-0.0215,-0.0163,-0.0081,0.0038,0.0083,0.0094,0.025,0.031,0.0406,0.042,0.0452,0.0468,0.0455,0.0494,0.0496,0.0498,0.0524,0.0529,0.0475,0.0475,0.0476,0.0476,0,-0.057,-0.0508,-0.047,-0.0385,-0.0297,-0.0223,-0.012,-0.0049,0.0019,0.0085,0.0184,0.0256,0.0345,0.0377,0.0415,0.0472,0.0479,0.0487,0.0483,0.0497,0.0525,0.0531,0.0473,0.0474,0.0474,0.0475,0,0,-0.0627,-0.0494,-0.0475,-0.0429,-0.0282,-0.0213,-0.0118,-0.0004,0.0059,0.0139,0.0212,0.0319,0.0341,0.0394,0.0443,0.0468,0.0494,0.0477,0.0479,0.0487,0.0555,0.048,0.048,0.0502,0.0503,0.0504,0.0568,0,-0.064,-0.0561,-0.0475,-0.0381,-0.0323,-0.0193,-0.011,0.0001,0.0095,0.0178,0.0256,0.0334,0.0356,0.039,0.042,0.0483,0.0507,0.0476,0.0555,0.0557,0.0476,0.0483,0.0431,0.0476,0.0573,0.0574,0.0575,0,-0.0652,-0.0584,-0.0512,-0.0369,-0.033,-0.0266,-0.0099,-0.0013,0.0125,0.0188,0.0267,0.0328,0.0398,0.0397,0.0492,0.0469,0.0506,0.054,0.0544,0.0488,0.0492,0.0481,0.0482,0.0584,0.0584,0.0583,0.0582,0,-0.0726,-0.0601,-0.0543,-0.0487,-0.0327,-0.0265,-0.0173,-0.0019,0.0055,0.0183,0.0227,0.0327,0.0375,0.0429,0.0495,0.0499,0.0576,0.0596,0.0568,0.0564,0.0542,0.0533,0.0648,0.0648,0.0648,0.0648,0.0648,0,-0.075,-0.0695,-0.0577,-0.0532,-0.0453,-0.0319,-0.0222,-0.0115,0.0013,0.0079,0.0205,0.0253,0.038,0.0444,0.0494,0.0534,0.0577,0.0563,0.0572,0.0528,0.0518,0.063,0.0628,0.065,0.065,0.0649,0.0649,0,-0.0825,-0.0749,-0.0678,-0.0533,-0.0487,-0.0428,-0.027,-0.0205,-0.0076,0.001,0.0039,0.0203,0.0277,0.0385,0.0488,0.0528,0.0576,0.0579,0.0513,0.051,0.0553,0.0548,0.0572,0.057,0.0568,0.0567,0.0565,0,-0.0854,-0.083,-0.0708,-0.0669,-0.0602,-0.0501,-0.043,-0.0274,-0.0211,-0.004,-0.0022,0.01,0.0122,0.0256,0.0372,0.0449,0.0508,0.0471,0.0461,0.0537,0.0544,0.0541,0.0539,0.0436,0.0434,0.0432,0.0431,0,-0.0906,-0.0874,-0.0817,-0.0748,-0.068,-0.0598,-0.0495,-0.0472,-0.0302,-0.026,-0.0204,-0.0182,-0.0018,0.0056,0.0204,0.0261,0.0452,0.0432,0.0547,0.0439,0.0407,0.0414,0.0417,0.0414,0.0416,0.0417,0.0418,0.0419,-0.0957,-0.0942,-0.0881,-0.0815,-0.0743,-0.0691,-0.0651,-0.0587,-0.0546,-0.045,-0.0408,-0.0339,-0.0196,-0.0026,0.0084,0.0278,0.0287,0.0351,0.0359,0.0368,0.0316,0.0279,0.0255,0.0255,0.0256,0.0257,0.0257,0,-0.102,-0.0984,-0.094,-0.0863,-0.0821,-0.0744,-0.0679,-0.0652,-0.0658,-0.0572,-0.0559,-0.0433,-0.035,-0.0133,0.01,0.0187,0.0235,0.0247,0.0287,0.03,0.0312,0.026,0.0184,0.0184,0.0185,0.0185,0,0,-0.1048,-0.104,-0.101,-0.0952,-0.0883,-0.0818,-0.0792,-0.0771,-0.0703,-0.0662,-0.0569,-0.0523,-0.0328,-0.0177,-0.0054,0.0087,0.0187,0.0116,0.0154,0.0196,0.0208,0.0337,0.0265,0,0,0,0,0]}],[{"header":{"parameterUnit":"m.s-1","parameterCategory":2,"la1":30.2991,"la2":30.254,"lo1":-89.0895,"lo2":-89.0444,"dy":0.0017,"dx":0.0017,"nx":28,"ny":28,"refTime":"2024-11-26T03:00:00:Z","depth":"4","parameterNumber":2,"parameterNumberName":"U-component_of_CURRENTS"},"data":[0,0,0,0,0,0,0,0,0,0,0,0,0,0,0,0,0,0,0,0,0,0,0,0,0,0,0,0,0,0,0,0,0,0,0,0,0,0,0,0,0,0,0,0,0,0,0,0,0,0,0,0,0,0,0,0,0,0,-0.0656,-0.0657,0,-0.0715,-0.0716,-0.0716,-0.0721,-0.072,-0.072,-0.072,-0.0798,-0.0801,-0.0803,0,0,0,0,0,0,0,0,0,0,0,0,0,-0.0621,-0.0621,-0.0656,-0.0657,-0.0658,-0.0715,-0.0716,-0.0716,-0.0721,-0.072,-0.072,-0.0719,-0.0797,-0.08,-0.0803,0,0,0,0,0,0,0,0,0,0,0,0,0,-0.0651,-0.0621,-0.0656,-0.067,-0.0672,-0.0715,-0.0716,-0.0716,-0.0721,-0.072,-0.072,-0.0719,-0.0796,-0.08,-0.0804,-0.0836,0,0,-0.0815,-0.0816,0,0,0,0,0,0,0,0,-0.0649,-0.0652,-0.0667,-0.0669,-0.0671,-0.0713,-0.0733,-0.0759,-0.0721,-0.0699,-0.072,-0.0719,-0.0774,-0.0779,-0.0787,-0.084,-0.0843,-0.0815,-0.0817,-0.0819,-0.082,0,0,0,0,0,0,0,-0.0647,-0.065,-0.0676,-0.0668,-0.0671,-0.0699,-0.0701,-0.0738,-0.0736,-0.0701,-0.0702,-0.0714,-0.0775,-0.0783,-0.0789,-0.0845,-0.0815,-0.0818,-0.082,-0.0822,-0.0898,-0.0898,0,0,0,0,0,0,-0.0643,-0.0647,-0.0674,-0.0678,-0.0662,-0.07,-0.0703,-0.0697,-0.0736,-0.0742,-0.0714,-0.0714,-0.0777,-0.0785,-0.0792,-0.0849,-0.0819,-0.0822,-0.0824,-0.0898,-0.0898,-0.0898,0,0,0,0,0,0,-0.0642,-0.0644,-0.0672,-0.0668,-0.0674,-0.0701,-0.0695,-0.0699,-0.0726,-0.0746,-0.0752,-0.0739,-0.0777,-0.0787,-0.0817,-0.0852,-0.0824,-0.0827,-0.0899,-0.0898,-0.0898,-0.0955,0,0,0,0,0,0,-0.064,-0.0643,-0.0646,-0.0667,-0.0674,-0.0689,-0.0696,-0.0701,-0.0734,-0.0735,-0.077,-0.0775,-0.0777,-0.0811,-0.0821,-0.0856,-0.083,-0.0899,-0.0899,-0.0898,-0.0953,-0.0957,-0.096,0,0,0,0,0,-0.0638,-0.0631,-0.0645,-0.065,-0.0674,-0.0689,-0.0694,-0.0711,-0.0736,-0.0736,-0.076,-0.0775,-0.0816,-0.0815,-0.0825,-0.0863,-0.0899,-0.0899,-0.0898,-0.0952,-0.0956,-0.0959,0,0,0,0,0,0,-0.0612,-0.0632,-0.0648,-0.0646,-0.0668,-0.069,-0.07,-0.0728,-0.075,-0.0759,-0.0783,-0.0789,-0.0823,-0.0829,-0.0828,-0.0877,-0.0857,-0.0859,-0.0894,-0.0898,-0.0901,-0.0899,-0.0833,0,0,0,0,0,-0.0612,-0.0606,-0.0639,-0.0635,-0.0652,-0.0688,-0.0704,-0.072,-0.0743,-0.0753,-0.0784,-0.0808,-0.0828,-0.0852,-0.086,-0.0907,-0.0886,-0.093,-0.0933,-0.0936,-0.0937,-0.0944,-0.0949,-0.0897,-0.0897,-0.0897,0,0,-0.0608,-0.061,-0.0614,-0.063,-0.0651,-0.0672,-0.0694,-0.0718,-0.0738,-0.0761,-0.08,-0.0822,-0.0837,-0.0869,-0.0887,-0.0886,-0.0931,-0.0936,-0.0939,-0.0938,-0.0945,-0.095,-0.0955,-0.0897,-0.0897,-0.0897,0,0,-0.0589,-0.0595,-0.0598,-0.0615,-0.0648,-0.0665,-0.0681,-0.0724,-0.0745,-0.0777,-0.0802,-0.0845,-0.0873,-0.0903,-0.0918,-0.0948,-0.0939,-0.0954,-0.0991,-0.0999,-0.1004,-0.1008,-0.0955,-0.0955,-0.0969,-0.0969,-0.0969,0,-0.0586,-0.0589,-0.0602,-0.0612,-0.0635,-0.0668,-0.0694,-0.0713,-0.076,-0.0789,-0.0781,-0.0851,-0.0885,-0.0942,-0.0957,-0.0962,-0.094,-0.0984,-0.1006,-0.1009,-0.1013,-0.0958,-0.0957,-0.0971,-0.0971,-0.0971,-0.0971,0,-0.0579,-0.0592,-0.0592,-0.0614,-0.0636,-0.0653,-0.0693,-0.0725,-0.0758,-0.0784,-0.0837,-0.0871,-0.0915,-0.0942,-0.0968,-0.1027,-0.0991,-0.1002,-0.1003,-0.1022,-0.0962,-0.0959,-0.0975,-0.0974,-0.0973,-0.0973,0,0,-0.0551,-0.0585,-0.0588,-0.0605,-0.0644,-0.0655,-0.0698,-0.0746,-0.0776,-0.0813,-0.0852,-0.0919,-0.0952,-0.0971,-0.1019,-0.1051,-0.1069,-0.1054,-0.1053,-0.1012,-0.1041,-0.0975,-0.0964,-0.1093,-0.1094,-0.1095,-0.0978,0,-0.0551,-0.0565,-0.0592,-0.0615,-0.0635,-0.0681,-0.0712,-0.0758,-0.0788,-0.0824,-0.0877,-0.0914,-0.0956,-0.0993,-0.1033,-0.1055,-0.1069,-0.1096,-0.1019,-0.1015,-0.0965,-0.0963,-0.1097,-0.0976,-0.0976,-0.0975,-0.0975,0,-0.0547,-0.0554,-0.0585,-0.0623,-0.0639,-0.0658,-0.0716,-0.0751,-0.0811,-0.0835,-0.0887,-0.0916,-0.0982,-0.1004,-0.1031,-0.1045,-0.1054,-0.106,-0.1055,-0.0975,-0.0946,-0.0959,-0.097,-0.097,-0.097,-0.0971,-0.0971,0,-0.0514,-0.055,-0.0569,-0.0582,-0.0632,-0.0663,-0.0697,-0.0761,-0.0789,-0.085,-0.0857,-0.0918,-0.0932,-0.0963,-0.0985,-0.1014,-0.0976,-0.1006,-0.0938,-0.093,-0.1002,-0.0999,-0.1022,-0.1022,-0.1022,-0.1023,-0.1023,0,-0.0495,-0.051,-0.0552,-0.0558,-0.0584,-0.0638,-0.0668,-0.0721,-0.0774,-0.0787,-0.0863,-0.0871,-0.093,-0.0922,-0.0953,-0.0909,-0.0938,-0.093,-0.0907,-0.102,-0.1021,-0.0997,-0.0996,-0.1018,-0.1019,-0.102,-0.1021,0,-0.0461,-0.049,-0.0507,-0.0554,-0.0569,-0.0589,-0.0641,-0.0659,-0.0719,-0.0734,-0.0754,-0.0815,-0.0808,-0.0826,-0.0844,-0.0838,-0.0828,-0.0813,-0.0876,-0.086,-0.0778,-0.0781,-0.0712,-0.0709,-0.0706,-0.0704,-0.0702,0,-0.0446,-0.0455,-0.0489,-0.0492,-0.0514,-0.0541,-0.0564,-0.0632,-0.0643,-0.0692,-0.069,-0.0706,-0.0733,-0.0668,-0.0722,-0.0707,-0.0736,-0.0694,-0.0804,-0.0767,-0.0752,-0.0758,-0.0764,-0.0698,-0.0697,-0.0697,-0.0696,0,-0.0427,-0.0443,-0.0455,-0.0454,-0.0468,-0.0474,-0.0503,-0.0498,-0.0561,-0.0603,-0.0612,-0.0629,-0.0602,-0.0626,-0.06,-0.0617,-0.0704,-0.0668,-0.0675,-0.0778,-0.075,-0.0738,-0.0747,-0.0687,-0.0688,-0.0689,-0.069,0,-0.0412,-0.0414,-0.0428,-0.0422,-0.0427,-0.0412,-0.0427,-0.0436,-0.0462,-0.0518,-0.051,-0.0546,-0.0579,-0.0576,-0.0567,-0.0553,-0.0582,-0.0588,-0.06,-0.0611,-0.0642,-0.0595,-0.0454,0,0,0,0,0,-0.0396,-0.0399,-0.0393,-0.0378,-0.0369,-0.037,-0.0394,-0.0409,-0.0445,-0.0433,-0.0474,-0.0465,-0.0474,-0.0509,-0.048,-0.053,-0.0576,-0.0495,-0.0588,-0.0637,-0.0647,-0.0699,0,0,0,0,0,0,-0.0393,-0.0394,-0.039,-0.0343,-0.031,-0.0302,-0.031,-0.0333,-0.0334,-0.0376,-0.039,-0.0429,-0.045,-0.0472,-0.0467,-0.0471,-0.052,-0.0521,-0.0519,-0.0631,-0.0641,-0.0649,-0.0706,0,0,0,0,0]},{"header":{"parameterUnit":"m.s-1","parameterCategory":2,"la1":30.2991,"la2":30.254,"lo1":-89.0895,"lo2":-89.0444,"dy":0.0017,"dx":0.0017,"nx":28,"ny":28,"refTime":"2024-11-26T03:00:00:Z","depth":"4","parameterNumber":3,"parameterNumberName":"V-component_of_CURRENTS"},"data":[0,0,0,0,0,0,0,0,0,0,0,0,0,0,0,0,0,0,0,0,0,0,0,0,0,0,0,0,0,0,0,0,0,0,0,0,0,0,0,0,0,0,0,0,0,0,0,0,0,0,0,0,0,0,0,0,0,0,-0.0733,-0.0734,0,-0.0778,-0.0778,-0.0779,-0.0814,-0.0814,-0.0815,-0.0815,-0.0838,-0.0838,-0.0839,0,0,0,0,0,0,0,0,0,0,0,0,0,-0.0663,-0.0664,-0.0733,-0.0734,-0.0734,-0.0778,-0.0778,-0.0779,-0.0814,-0.0814,-0.0815,-0.0815,-0.0838,-0.0838,-0.0839,0,0,0,0,0,0,0,0,0,0,0,0,0,-0.07,-0.0665,-0.0733,-0.0757,-0.0759,-0.0778,-0.0778,-0.0779,-0.0814,-0.0814,-0.0815,-0.0815,-0.0838,-0.0838,-0.0839,-0.0833,0,0,-0.084,-0.084,0,0,0,0,0,0,0,0,-0.0698,-0.0702,-0.0753,-0.0755,-0.0758,-0.079,-0.0762,-0.0796,-0.0814,-0.0794,-0.0815,-0.0815,-0.0819,-0.0821,-0.083,-0.0834,-0.0835,-0.084,-0.0841,-0.0841,-0.0841,0,0,0,0,0,0,0,-0.0695,-0.0701,-0.0752,-0.0753,-0.0756,-0.0759,-0.0765,-0.0769,-0.0804,-0.0796,-0.0798,-0.0802,-0.0821,-0.0829,-0.0831,-0.0836,-0.084,-0.0841,-0.0841,-0.0841,-0.0848,-0.0848,0,0,0,0,0,0,-0.0689,-0.0698,-0.075,-0.0753,-0.0727,-0.076,-0.0767,-0.078,-0.0804,-0.0808,-0.0801,-0.0803,-0.0828,-0.083,-0.0831,-0.0854,-0.0841,-0.0841,-0.0842,-0.0848,-0.0848,-0.0848,0,0,0,0,0,0,-0.0687,-0.0693,-0.0748,-0.0725,-0.0733,-0.0761,-0.0775,-0.0781,-0.0807,-0.0809,-0.0813,-0.0824,-0.0829,-0.0831,-0.0857,-0.0854,-0.0842,-0.0842,-0.0848,-0.0848,-0.0848,-0.088,0,0,0,0,0,0,-0.0685,-0.0693,-0.0712,-0.0725,-0.0734,-0.0766,-0.0775,-0.0781,-0.0807,-0.081,-0.0829,-0.0831,-0.0829,-0.0857,-0.0858,-0.0854,-0.0842,-0.0849,-0.0848,-0.0848,-0.0879,-0.0881,-0.0883,0,0,0,0,0,-0.0683,-0.0704,-0.0713,-0.072,-0.0756,-0.0766,-0.0771,-0.0792,-0.0808,-0.0818,-0.0841,-0.0831,-0.0854,-0.0858,-0.0859,-0.0855,-0.0849,-0.0848,-0.0848,-0.0878,-0.0881,-0.0883,0,0,0,0,0,0,-0.069,-0.071,-0.072,-0.0749,-0.0759,-0.0772,-0.0789,-0.0802,-0.0829,-0.0841,-0.0845,-0.0848,-0.0864,-0.0857,-0.086,-0.0854,-0.0843,-0.0843,-0.0866,-0.0868,-0.0869,-0.0869,-0.0843,0,0,0,0,0,-0.0698,-0.0719,-0.0731,-0.0756,-0.0761,-0.0778,-0.0791,-0.0805,-0.0823,-0.0837,-0.0847,-0.0855,-0.086,-0.0865,-0.0866,-0.0874,-0.0859,-0.0865,-0.0867,-0.0869,-0.0868,-0.086,-0.0861,-0.0847,-0.0847,-0.0847,0,0,-0.0706,-0.0722,-0.0735,-0.0759,-0.0771,-0.0777,-0.0788,-0.081,-0.082,-0.0833,-0.0858,-0.0867,-0.0864,-0.0872,-0.0876,-0.0869,-0.0862,-0.0868,-0.087,-0.0868,-0.086,-0.0861,-0.0862,-0.0847,-0.0847,-0.0847,0,0,-0.0718,-0.0748,-0.0759,-0.0768,-0.0787,-0.0795,-0.0803,-0.0821,-0.0835,-0.0856,-0.0866,-0.0882,-0.0886,-0.0887,-0.0886,-0.0897,-0.0874,-0.0887,-0.0896,-0.0889,-0.089,-0.0891,-0.0866,-0.0865,-0.0885,-0.0885,-0.0885,0,-0.0728,-0.0747,-0.0764,-0.0772,-0.0783,-0.0802,-0.0809,-0.0821,-0.0847,-0.0858,-0.0864,-0.0881,-0.0889,-0.0895,-0.0903,-0.0901,-0.0888,-0.0893,-0.0892,-0.0893,-0.0894,-0.0868,-0.0866,-0.0887,-0.0886,-0.0886,-0.0886,0,-0.0732,-0.0755,-0.0763,-0.0778,-0.0791,-0.0805,-0.0816,-0.0836,-0.0854,-0.0862,-0.0879,-0.0892,-0.0901,-0.09,-0.0911,-0.0914,-0.0899,-0.09,-0.0891,-0.0897,-0.0869,-0.0867,-0.0889,-0.0888,-0.0888,-0.0887,0,0,-0.0732,-0.0759,-0.0765,-0.0776,-0.0799,-0.0809,-0.0827,-0.0842,-0.0859,-0.0872,-0.0884,-0.0901,-0.0911,-0.0911,-0.0918,-0.0917,-0.0918,-0.0915,-0.0914,-0.0897,-0.0888,-0.0788,-0.0775,-0.0922,-0.0922,-0.0922,-0.0865,0,-0.073,-0.0748,-0.0762,-0.0783,-0.0792,-0.0817,-0.0831,-0.0852,-0.0868,-0.0882,-0.0889,-0.0904,-0.091,-0.0925,-0.0924,-0.0926,-0.0914,-0.0932,-0.0879,-0.0877,-0.0793,-0.077,-0.0921,-0.0863,-0.0862,-0.0862,-0.0861,0,-0.0724,-0.0741,-0.0758,-0.0793,-0.0799,-0.0818,-0.0853,-0.0868,-0.0888,-0.0898,-0.0907,-0.0913,-0.0922,-0.0926,-0.091,-0.0923,-0.0908,-0.0899,-0.0897,-0.079,-0.0772,-0.0855,-0.0856,-0.0857,-0.0857,-0.0857,-0.0858,0,-0.0711,-0.074,-0.0758,-0.0769,-0.0804,-0.0828,-0.0854,-0.0882,-0.0896,-0.0914,-0.0919,-0.0921,-0.0927,-0.0912,-0.089,-0.091,-0.0854,-0.0876,-0.0761,-0.0753,-0.0851,-0.085,-0.0852,-0.0852,-0.0852,-0.0852,-0.0853,0,-0.0701,-0.0722,-0.0762,-0.0774,-0.0809,-0.0834,-0.0867,-0.0893,-0.0916,-0.0923,-0.0931,-0.0926,-0.0928,-0.0896,-0.0879,-0.0791,-0.0838,-0.0748,-0.0728,-0.0863,-0.0865,-0.0848,-0.0848,-0.085,-0.0851,-0.0851,-0.0851,0,-0.069,-0.0712,-0.0741,-0.0786,-0.0806,-0.0838,-0.0886,-0.0899,-0.0923,-0.093,-0.0938,-0.0935,-0.0881,-0.0842,-0.0808,-0.0762,-0.0703,-0.0659,-0.0781,-0.0771,-0.0614,-0.0617,-0.0535,-0.0531,-0.0528,-0.0525,-0.0522,0,-0.0684,-0.0696,-0.0752,-0.0773,-0.0802,-0.0845,-0.0869,-0.0907,-0.0907,-0.0925,-0.0914,-0.0882,-0.0859,-0.0719,-0.0691,-0.0597,-0.0588,-0.0555,-0.0608,-0.0591,-0.058,-0.0589,-0.0596,-0.0517,-0.0516,-0.0515,-0.0514,0,-0.0675,-0.0702,-0.0726,-0.0766,-0.0802,-0.0831,-0.0863,-0.086,-0.0884,-0.0907,-0.0873,-0.0823,-0.0739,-0.0673,-0.0575,-0.0525,-0.058,-0.0519,-0.0527,-0.0577,-0.0568,-0.0562,-0.0574,-0.0502,-0.0504,-0.0505,-0.0506,0,-0.067,-0.0687,-0.0717,-0.075,-0.0792,-0.0805,-0.0826,-0.0817,-0.0826,-0.0836,-0.0825,-0.0772,-0.0763,-0.0631,-0.0556,-0.0469,-0.0468,-0.0468,-0.0479,-0.0492,-0.0492,-0.0476,-0.035,0,0,0,0,0,-0.0654,-0.0666,-0.0695,-0.0728,-0.0765,-0.0791,-0.081,-0.0817,-0.0833,-0.0795,-0.0809,-0.073,-0.0616,-0.0585,-0.0475,-0.0491,-0.045,-0.036,-0.0454,-0.0435,-0.0449,-0.0447,0,0,0,0,0,0,-0.0642,-0.0668,-0.0681,-0.07,-0.0718,-0.0754,-0.0767,-0.078,-0.0746,-0.0762,-0.0697,-0.0698,-0.0581,-0.0676,-0.0475,-0.0452,-0.0495,-0.032,-0.0317,-0.0427,-0.044,-0.0451,-0.0454,0,0,0,0,0]}]]